Weather History for KMRB - December, 2012

Change the Weather History Date:

Sunday, December 9, 2012

  Actual Average Record
Temperature  
Mean Temperature 47 °F 36 °F  
Max Temperature 49 °F 45 °F 75 °F (1966)
Min Temperature 44 °F 27 °F 4 °F (1989)
Degree Days  
Heating Degree Days 18 29  
Month to date heating degree days 172 251  
Since 1 July heating degree days 1281 1321  
Cooling Degree Days 0 0  
Month to date cooling degree days 0 0  
Year to date cooling degree days 1145 895  
Moisture  
Dew Point 45 °F    
Average Humidity 93    
Maximum Humidity 100    
Minimum Humidity 86    
Precipitation  
Precipitation 0.41 in 0.10 in 1.15 in (2009)
Month to date precipitation 0.54 0.93  
Year to date precipitation 29.94 36.92  
Sea Level Pressure  
Sea Level Pressure 30.11 in    
Wind  
Wind Speed 2 mph (NNE)    
Max Wind Speed 10 mph    
Max Gust Speed 13 mph    
Visibility 2 miles    
Events Fog , Rain    
T = Trace of Precipitation, MM = Missing Value Source: NWS Daily Summary

Daily Weather History Graph

Daily Weather History Graph

Search for Another Location

Airport or City:

Trip Planner

Search our weather history database for the weather conditions in past years. The results will help you decide how hot, cold, wet, or windy it might be!

Date:

Astronomy

Dec. 09, 2012 Rise Set
Actual Time 7:20 AM EST 4:48 PM EST
Civil Twilight 6:50 AM EST 5:18 PM EST
Nautical Twilight 6:16 AM EST 5:52 PM EST
Astronomical Twilight 5:44 AM EST 6:24 PM EST
Moon 2:52 AM EST (12/9) 1:53 PM EST (12/9)
Length of Visible Light 10h 27m
Length of Day
9h 27m
Waning Crescent, 19% of the Moon is Illuminated
Dec 9
Waning Crescent
Dec 13
New
Dec 20
First Quarter
Dec 28
Full
Jan 4
Last Quarter

Hourly Weather History & Observations

Time (EST) Temp. Windchill Dew Point Humidity Pressure Visibility Wind Dir Wind Speed Gust Speed Precip Events Conditions
12:53 AM 48.0 °F - 45.0 °F 89% 30.04 in 6.0 mi Calm Calm - N/A   Overcast
1:53 AM 46.9 °F - 44.1 °F 90% 30.06 in 5.0 mi Calm Calm - N/A   Mostly Cloudy
2:53 AM 45.0 °F - 43.0 °F 93% 30.06 in 3.0 mi Calm Calm - N/A   Clear
3:03 AM 44.6 °F - 42.8 °F 93% 30.06 in 2.5 mi Calm Calm - N/A   Partly Cloudy
3:50 AM 46.4 °F - 44.6 °F 93% 30.07 in 3.0 mi Calm Calm - N/A   Overcast
3:53 AM 46.0 °F - 44.1 °F 93% 30.08 in 3.0 mi Calm Calm - N/A   Overcast
4:40 AM 46.4 °F - 44.6 °F 93% 30.08 in 2.5 mi Calm Calm - 0.02 in Rain Light Rain
4:53 AM 46.9 °F - 45.0 °F 93% 30.09 in 2.5 mi Calm Calm - 0.03 in Rain Light Rain
5:53 AM 46.9 °F - 46.0 °F 97% 30.12 in 1.8 mi Calm Calm - 0.06 in Rain Light Rain
6:30 AM 46.4 °F - 46.4 °F 100% 30.13 in 2.0 mi Calm Calm - 0.07 in Rain Rain
6:53 AM 46.9 °F - 46.0 °F 97% 30.15 in 2.0 mi North 3.5 mph - 0.11 in Rain Light Rain
7:07 AM 48.2 °F - 46.4 °F 93% 30.15 in 3.0 mi North 3.5 mph - 0.01 in Rain Light Rain
7:53 AM 48.0 °F - 45.0 °F 89% 30.16 in 4.0 mi NNE 4.6 mph - 0.06 in Rain Light Rain
8:15 AM 48.2 °F - 46.4 °F 93% 30.16 in 2.5 mi NNE 4.6 mph - 0.01 in Rain Light Rain
8:22 AM 48.2 °F - 46.4 °F 93% 30.16 in 3.0 mi NE 4.6 mph - 0.02 in Rain Light Rain
8:37 AM 46.4 °F 45.2 °F 46.4 °F 100% 30.17 in 2.0 mi ENE 3.5 mph - 0.03 in Rain Light Rain
8:53 AM 46.9 °F - 46.0 °F 97% 30.18 in 1.8 mi Calm Calm - 0.05 in Rain Light Rain
9:12 AM 48.2 °F - 46.4 °F 93% 30.18 in 2.0 mi NE 3.5 mph - 0.01 in Rain Light Rain
9:43 AM 48.2 °F - 46.4 °F 93% 30.19 in 1.5 mi NNW 3.5 mph - 0.03 in Rain Light Rain
9:53 AM 48.0 °F - 46.0 °F 93% 30.19 in 1.5 mi North 4.6 mph - 0.04 in Rain Light Rain
10:00 AM 48.2 °F - 46.4 °F 93% 30.18 in 1.8 mi NNE 4.6 mph - 0.00 in Rain Light Rain
10:09 AM 48.2 °F - 46.4 °F 93% 30.18 in 2.0 mi NNE 4.6 mph - 0.00 in Rain Light Rain
10:23 AM 48.2 °F - 46.4 °F 93% 30.19 in 2.0 mi North 4.6 mph - 0.01 in Rain Light Rain
10:35 AM 48.2 °F - 44.6 °F 87% 30.18 in 3.0 mi NNE 4.6 mph - 0.01 in   Overcast
10:46 AM 48.2 °F - 46.4 °F 93% 30.18 in 2.0 mi NNE 3.5 mph - 0.01 in Rain Light Rain
10:53 AM 46.9 °F - 46.0 °F 97% 30.18 in 1.5 mi North 3.5 mph - 0.01 in Rain Light Rain
11:14 AM 46.4 °F 45.2 °F 46.4 °F 100% 30.17 in 1.8 mi North 3.5 mph - 0.02 in Rain Light Rain
11:43 AM 46.4 °F 43.5 °F 44.6 °F 93% 30.16 in 2.0 mi North 5.8 mph - 0.02 in Rain Light Rain
11:53 AM 46.9 °F - 45.0 °F 93% 30.16 in 2.0 mi NNE 5.8 mph - 0.03 in Rain Light Rain
12:17 PM 46.4 °F 43.5 °F 44.6 °F 93% 30.14 in 3.0 mi North 5.8 mph - 0.00 in   Overcast
12:53 PM 46.0 °F 43.1 °F 44.1 °F 93% 30.14 in 3.0 mi North 5.8 mph - 0.00 in   Overcast
1:03 PM 44.6 °F 41.4 °F 42.8 °F 93% 30.13 in 2.5 mi North 5.8 mph - N/A   Overcast
1:36 PM 44.6 °F 41.4 °F 42.8 °F 93% 30.12 in 1.5 mi North 5.8 mph - N/A   Overcast
1:53 PM 45.0 °F 42.6 °F 43.0 °F 93% 30.13 in 1.0 mi North 4.6 mph - 0.01 in   Overcast
2:53 PM 45.0 °F 41.8 °F 43.0 °F 93% 30.13 in 1.0 mi NNE 5.8 mph - N/A   Overcast
3:51 PM 44.6 °F 42.2 °F 42.8 °F 93% 30.10 in 0.8 mi NNE 4.6 mph - N/A   Overcast
3:53 PM 45.0 °F 42.6 °F 43.0 °F 93% 30.10 in 0.8 mi NNE 4.6 mph - N/A   Overcast
4:06 PM 44.6 °F 43.1 °F 42.8 °F 93% 30.10 in 1.0 mi North 3.5 mph - 0.01 in Rain Light Rain
4:20 PM 44.6 °F 43.1 °F 42.8 °F 93% 30.10 in 1.0 mi North 3.5 mph - 0.01 in Rain Light Rain
4:53 PM 45.0 °F - 43.0 °F 93% 30.10 in 1.5 mi Calm Calm - 0.01 in   Overcast
4:58 PM 44.6 °F - 44.6 °F 100% 30.09 in 2.0 mi Calm Calm - N/A   Overcast
5:21 PM 44.6 °F - 42.8 °F 93% 30.09 in 1.8 mi Calm Calm - N/A   Overcast
5:53 PM 45.0 °F - 44.1 °F 97% 30.09 in 2.5 mi Calm Calm - N/A   Overcast
6:09 PM 44.6 °F - 44.6 °F 100% 30.09 in 3.0 mi Calm Calm - N/A   Overcast
6:29 PM 44.6 °F 42.2 °F 44.6 °F 100% 30.08 in 2.5 mi East 4.6 mph - N/A   Overcast
6:53 PM 46.0 °F - 44.1 °F 93% 30.10 in 2.0 mi Calm Calm - 0.00 in   Overcast
7:02 PM 44.6 °F 43.1 °F 44.6 °F 100% 30.09 in 1.5 mi ENE 3.5 mph - N/A   Overcast
7:53 PM 45.0 °F 43.5 °F 44.1 °F 97% 30.07 in 1.5 mi East 3.5 mph - 0.00 in Rain Light Rain
8:05 PM 44.6 °F - 44.6 °F 100% 30.06 in 2.0 mi Calm Calm - 0.00 in Rain Light Rain
8:35 PM 46.4 °F - 44.6 °F 93% 30.05 in 3.0 mi Calm Calm - 0.00 in Rain Light Rain
8:43 PM 46.4 °F - 44.6 °F 93% 30.05 in 2.0 mi Calm Calm - 0.00 in Rain Light Rain
8:53 PM 46.0 °F - 44.1 °F 93% 30.05 in 2.0 mi Calm Calm - 0.00 in   Overcast
9:00 PM 46.4 °F - 44.6 °F 93% 30.04 in 1.5 mi Calm Calm - N/A   Overcast
9:26 PM 46.4 °F - 44.6 °F 93% 30.03 in 0.8 mi Calm Calm - 0.00 in Rain Light Rain
9:53 PM 46.0 °F 44.8 °F 44.1 °F 93% 30.02 in 0.5 mi NE 3.5 mph - 0.00 in Fog Fog
10:53 PM 46.0 °F - 45.0 °F 96% 29.99 in 0.5 mi Calm Calm - N/A Fog Fog
11:42 PM 46.4 °F - 44.6 °F 93% 29.96 in 1.5 mi Calm Calm - N/A   Overcast
11:53 PM 46.0 °F - 45.0 °F 96% 29.96 in 2.5 mi Calm Calm - N/A   Overcast